Regional Weather Roundup
Issued by NWS Little Rock, AR

Home | Current Version | Previous Version | Graphics & Text | Print | Product List | Glossary Off
Versions: 1 2 3 4 5 6 7 8 9 10 11 12 13 14 15 16 17 18 19 20 21 22 23 24 25 26 27 28 29 30 31

000
ASUS44 KLZK 230905
RWRLZK

WEATHER ROUNDUP FOR ARKANSAS
NATIONAL WEATHER SERVICE LITTLE ROCK AR
400 AM CDT SUN APR 23 2017

NOTE: "FAIR" INDICATES FEW OR NO CLOUDS BELOW 12,000 FEET WITH NO
SIGNIFICANT WEATHER AND/OR OBSTRUCTIONS TO VISIBILITY.

ARZ001-003-010-029-231000-
NORTHWEST ARKANSAS

CITY           SKY/WX    TMP DP  RH WIND       PRES   REMARKS
FAYETTEVILLE   CLEAR     43  42  97 N5        30.08S
FORT SMITH     PTCLDY    47  44  90 W6        30.09S
HARRISON       CLOUDY    46  44  93 NW6       30.06S
BENTONVILLE    CLEAR     45  39  81 N6        30.09S
ROGERS         CLEAR     43  41  93 NW6       30.09S
SILOAM SPGS    CLEAR     45  37  76 N7        30.09S
HIGHFILL       CLEAR     46  41  82 NW9       30.08F
$$

ARZ004-005-016-231000-
NORTH CENTRAL ARKANSAS

CITY           SKY/WX    TMP DP  RH WIND       PRES   REMARKS
BATESVILLE     CLOUDY    48  45  87 NW6       30.00S
FLIPPIN        MOCLDY    48  41  76 NW7       30.02R
MTN HOME       MOCLDY    46  44  93 N5        30.03R
$$

ARZ040-041-231000-
WEST CENTRAL ARKANSAS

CITY           SKY/WX    TMP DP  RH WIND       PRES   REMARKS
MENA           MOCLDY    50  50 100 N3        30.06S
MOUNT IDA      CLOUDY    50  46  86 VRB3      30.01S
$$

ARZ009-017-025-026-028-231000-
NORTHEAST ARKANSAS

CITY           SKY/WX    TMP DP  RH WIND       PRES   REMARKS
JONESBORO      MOCLDY    49  46  90 N7        29.94F
NEWPORT        CLOUDY    49  46  90 N10       29.97
WALNUT RIDGE   MOCLDY    50  43  76 N10       29.97S
BLYTHEVILLE    LGT RAIN  50  48  93 N18G24    29.92F
$$

ARZ022-023-033-042-044-231000-
CENTRAL ARKANSAS

CITY           SKY/WX    TMP DP  RH WIND       PRES   REMARKS
LITTLE ROCK    CLOUDY    51  47  86 N9        30.00S
N LITTLE ROCK    N/A     49  46  88 N6        30.01S
JACKSONVILLE   CLOUDY    51  46  84 N7        29.99S
CONWAY           N/A     52  46  82 N8        30.01S
SEARCY         CLOUDY    50  47  89 NW8       30.01R
HOT SPRINGS    CLOUDY    51  47  86 NW5       30.03R
RUSSELLVILLE   CLOUDY    51  44  77 NW5       30.03F
$$

ARZ036-231000-
EAST ARKANSAS

CITY           SKY/WX    TMP DP  RH WIND       PRES   REMARKS
WEST MEMPHIS   CLOUDY    51  50  96 N12       29.91S
$$

ARZ050-053-066-070-073-231000-
SOUTHWEST ARKANSAS

CITY           SKY/WX    TMP DP  RH WIND       PRES   REMARKS
ARKADELPHIA    CLOUDY    53  47  79 N7        30.03S
CAMDEN         CLOUDY    50  46  87 NW5       30.02R
TEXARKANA      CLOUDY    50  46  86 NW10      30.04S
EL DORADO      CLOUDY    51  49  92 NW6       30.00F
DE QUEEN       PTCLDY    50  47  89 NW3       30.05S
$$

ARZ056-057-069-231000-
SOUTHEAST ARKANSAS

CITY           SKY/WX    TMP DP  RH WIND       PRES   REMARKS
PINE BLUFF     CLOUDY    50  48  93 N10       29.98F
STUTTGART      CLOUDY    50  39  66 N14       29.98S
MONTICELLO     CLOUDY    52  48  86 NW6       29.97R

$$






USA.gov is the U.S. government's official web portal to all federal, state and local government web resources and services.